This is the latest recevied weather packets stored in our database for station/object KO4FR. If no packets are shown the sender has not sent any weather packets the latest 10 day(s).
| Time | Temp. | Humidity | Pressure | Rain* | Wind** | Luminosity | Snow |
|---|---|---|---|---|---|---|---|
| 1777471213 | 16.67° C | 46% | 1014.4 hPa | 0 mm | - | - | - |
| 1777470913 | 16.67° C | 43% | 1014.3 hPa | 0 mm | - | - | - |
| 1777470613 | 16.67° C | 44% | 1014.3 hPa | 0 mm | - | - | - |
| 1777470313 | 16.11° C | 41% | 1014.6 hPa | 0 mm | - | - | - |
| 1777470013 | 16.11° C | 40% | 1014.7 hPa | 0 mm | - | - | - |
| 1777469713 | 16.11° C | 38% | 1014.7 hPa | 0 mm | - | - | - |
| 1777469413 | 16.11° C | 34% | 1014.9 hPa | 0 mm | - | - | - |
| 1777469113 | 15.56° C | 31% | 1014.9 hPa | 0 mm | - | - | - |
| 1777468813 | 15.56° C | 27% | 1015.1 hPa | 0 mm | - | - | - |
| 1777468513 | 15° C | 29% | 1015.1 hPa | 0 mm | - | - | - |
| 1777468213 | 15° C | 27% | 1015.2 hPa | 0 mm | - | - | - |
| 1777467913 | 15° C | 27% | 1015.2 hPa | 0 mm | - | - | - |
| 1777467613 | 15° C | 26% | 1015.4 hPa | 0 mm | - | - | - |
| 1777467313 | 15° C | 25% | 1015.5 hPa | 0 mm | - | - | - |
| 1777467013 | 15° C | 23% | 1015.5 hPa | 0 mm | - | - | - |
| 1777466713 | 14.44° C | 19% | 1015.5 hPa | 0 mm | - | - | - |
| 1777466413 | 14.44° C | 18% | 1015.4 hPa | 0 mm | - | - | - |
| 1777466113 | 14.44° C | 15% | 1015.4 hPa | 0 mm | - | - | - |
| 1777465783 | 14.44° C | 10% | 1015.4 hPa | 0 mm | - | - | - |
| 1777465513 | 14.44° C | 7% | 1015.4 hPa | 0 mm | - | - | - |
| 1777465213 | 14.44° C | 6% | 1015.4 hPa | 0 mm | - | - | - |
| 1777464913 | 13.89° C | 6% | 1015.3 hPa | 0 mm | - | - | - |
| 1777464612 | 13.89° C | 3% | 1015.4 hPa | 0 mm | - | - | - |
| 1777464313 | 13.89° C | 2% | 1015.4 hPa | 0 mm | - | - | - |
| 1777464012 | 13.89° C | 1% | 1015.4 hPa | 0 mm | - | - | - |
* Rain latest hour (hover to see other rain measurements)
** Current wind speed in m/s (hover to see current wind gust speed)